When you browse on this site, cookies collect data to enhance your experience and personalize the content and advertising you see.
Visit our Privacy Policy to learn more. By continuing to use the site, you agree to this use of cookies and data.
  • In Spain
  • List of Countries
  • For 7 days
  • Water Temperature
  • Weather Map
  • Weather Widgets
  • user-avatar
    Login

    Hourly Weather Wrexham

    Today, 29 March, Sunday

    Time Temperature Precipitation Wind Pressure Humidity
    00:00 0°C° 0 mm 4 mps 771 mmHg 74%
    01:00 -1°C° 0 mm 4 mps 772 mmHg 72%
    02:00 -1°C° 0 mm 4 mps 772 mmHg 71%
    03:00 -1°C° 0 mm 4 mps 772 mmHg 69%
    04:00 -2°C° 0 mm 4 mps 772 mmHg 70%
    05:00 -2°C° 0 mm 4 mps 773 mmHg 71%
    06:00 -2°C° 0 mm 4 mps 773 mmHg 72%
    07:00 -1°C° 0 mm 5 mps 773 mmHg 68%
    08:00 -1°C° 0 mm 6 mps 774 mmHg 64%
    09:00 +2°C° 0 mm 7 mps 774 mmHg 60%
    10:00 +2°C° 0 mm 7 mps 774 mmHg 58%
    11:00 +3°C° 0 mm 6 mps 774 mmHg 55%
    12:00 +4°C° 0 mm 6 mps 774 mmHg 52%
    13:00 +4°C° 0 mm 6 mps 774 mmHg 52%
    14:00 +5°C° 0 mm 6 mps 774 mmHg 52%
    15:00 +5°C° 0 mm 6 mps 773 mmHg 52%
    16:00 +5°C° 0 mm 5 mps 773 mmHg 56%
    17:00 +3°C° 0 mm 5 mps 773 mmHg 60%
    18:00 +3°C° 0 mm 4 mps 774 mmHg 63%
    19:00 +2°C° 0 mm 3 mps 774 mmHg 66%
    20:00 +1°C° 0 mm 3 mps 773 mmHg 69%
    21:00 +1°C° 0 mm 2 mps 773 mmHg 71%
    22:00 -1°C° 0 mm 2 mps 773 mmHg 72%
    23:00 -1°C° 0 mm 2 mps 773 mmHg 73%

    Tomorrow, 30 March, Monday

    Time Temperature Precipitation Wind Pressure Humidity
    00:00 -1°C° 0 mm 2 mps 773 mmHg 74%
    01:00 -1°C° 0 mm 2 mps 772 mmHg 77%
    02:00 -1°C° 0 mm 2 mps 772 mmHg 79%
    03:00 -1°C° 0 mm 2 mps 771 mmHg 81%
    04:00 +1°C° 0 mm 2 mps 771 mmHg 81%
    05:00 +1°C° 0 mm 3 mps 771 mmHg 80%
    06:00 +1°C° 0 mm 3 mps 770 mmHg 79%
    07:00 +3°C° 0 mm 3 mps 770 mmHg 75%
    08:00 +4°C° 0 mm 4 mps 770 mmHg 71%
    09:00 +5°C° 0 mm 5 mps 770 mmHg 66%
    10:00 +6°C° 0 mm 4 mps 769 mmHg 65%
    11:00 +6°C° 0 mm 4 mps 769 mmHg 65%
    12:00 +7°C° 0 mm 4 mps 769 mmHg 64%
    13:00 +7°C° 0 mm 4 mps 769 mmHg 66%
    14:00 +7°C° 0 mm 5 mps 768 mmHg 68%
    15:00 +6°C° 0 mm 5 mps 768 mmHg 71%
    16:00 +6°C° 0.1 mm 4 mps 768 mmHg 74%
    17:00 +5°C° 0.1 mm 4 mps 768 mmHg 78%
    18:00 +5°C° 0.1 mm 3 mps 768 mmHg 81%
    19:00 +4°C° 0 mm 3 mps 768 mmHg 84%
    20:00 +3°C° 0 mm 3 mps 768 mmHg 86%
    21:00 +3°C° 0 mm 2 mps 768 mmHg 88%
    22:00 +3°C° 0 mm 2 mps 768 mmHg 89%
    23:00 +2°C° 0 mm 2 mps 768 mmHg 90%

    Day after tomorrow, 31 March, Tuesday

    Time Temperature Precipitation Wind Pressure Humidity
    00:00 +2°C° 0 mm 2 mps 768 mmHg 91%
    01:00 +2°C° 0 mm 2 mps 768 mmHg 91%
    02:00 +1°C° 0 mm 2 mps 768 mmHg 92%
    03:00 +1°C° 0 mm 2 mps 768 mmHg 92%
    04:00 +2°C° 0 mm 1 mps 768 mmHg 93%
    05:00 +1°C° 0 mm 1 mps 768 mmHg 93%
    06:00 +1°C° 0 mm 1 mps 768 mmHg 93%
    07:00 +3°C° 0 mm 1 mps 768 mmHg 87%
    08:00 +5°C° 0 mm 1 mps 768 mmHg 81%
    09:00 +7°C° 0 mm 1 mps 768 mmHg 76%
    10:00 +8°C° 0 mm 1 mps 768 mmHg 71%
    11:00 +8°C° 0 mm 2 mps 768 mmHg 67%
    12:00 +9°C° 0 mm 2 mps 768 mmHg 62%
    13:00 +8°C° 0 mm 2 mps 767 mmHg 63%
    14:00 +8°C° 0 mm 2 mps 766 mmHg 64%
    15:00 +8°C° 0 mm 2 mps 766 mmHg 64%
    16:00 +8°C° 0 mm 3 mps 766 mmHg 68%
    17:00 +7°C° 0 mm 3 mps 765 mmHg 72%
    18:00 +5°C° 0 mm 3 mps 765 mmHg 77%
    19:00 +4°C° 0 mm 3 mps 765 mmHg 80%
    20:00 +4°C° 0 mm 2 mps 765 mmHg 83%
    21:00 +3°C° 0 mm 2 mps 765 mmHg 87%
    22:00 +4°C° 0 mm 2 mps 765 mmHg 86%
    23:00 +4°C° 0 mm 2 mps 765 mmHg 86%

    1 April, Wednesday

    Time Temperature Precipitation Wind Pressure Humidity
    00:00 +4°C° 0 mm 2 mps 765 mmHg 85%
    01:00 +4°C° 0 mm 2 mps 764 mmHg 85%
    02:00 +4°C° 0 mm 2 mps 764 mmHg 85%
    03:00 +5°C° 0 mm 1 mps 763 mmHg 84%
    04:00 +5°C° 0 mm 1 mps 763 mmHg 85%
    05:00 +5°C° 0 mm 1 mps 763 mmHg 86%
    06:00 +5°C° 0 mm 1 mps 763 mmHg 86%
    07:00 +6°C° 0 mm 1 mps 762 mmHg 84%
    08:00 +6°C° 0 mm 2 mps 762 mmHg 81%
    09:00 +6°C° 0 mm 2 mps 762 mmHg 79%
    10:00 +7°C° 0 mm 3 mps 762 mmHg 73%
    11:00 +7°C° 0 mm 3 mps 762 mmHg 68%
    12:00 +8°C° 0 mm 3 mps 761 mmHg 63%
    13:00 +7°C° 0 mm 4 mps 761 mmHg 61%
    14:00 +7°C° 0 mm 4 mps 760 mmHg 59%
    15:00 +7°C° 0 mm 5 mps 759 mmHg 58%
    16:00 +7°C° 0 mm 4 mps 759 mmHg 62%
    17:00 +6°C° 0 mm 4 mps 759 mmHg 67%
    18:00 +5°C° 0 mm 3 mps 759 mmHg 71%
    19:00 +5°C° 0 mm 3 mps 759 mmHg 74%
    20:00 +4°C° 0 mm 3 mps 759 mmHg 77%
    21:00 +4°C° 0 mm 3 mps 759 mmHg 80%
    22:00 +3°C° 0 mm 3 mps 759 mmHg 81%
    23:00 +3°C° 0 mm 3 mps 759 mmHg 83%

    2 April, Thursday

    Time Temperature Precipitation Wind Pressure Humidity
    00:00 +3°C° 0 mm 3 mps 759 mmHg 85%
    01:00 +3°C° 0 mm 3 mps 758 mmHg 85%
    02:00 +3°C° 0 mm 3 mps 758 mmHg 85%
    03:00 +3°C° 0 mm 4 mps 757 mmHg 85%
    04:00 +3°C° 0 mm 3 mps 757 mmHg 88%
    05:00 +2°C° 0 mm 3 mps 757 mmHg 90%
    06:00 +2°C° 0 mm 3 mps 757 mmHg 93%
    07:00 +3°C° 0 mm 4 mps 757 mmHg 89%
    08:00 +5°C° 0 mm 4 mps 757 mmHg 85%
    09:00 +6°C° 0 mm 4 mps 757 mmHg 81%
    10:00 +7°C° 0 mm 4 mps 757 mmHg 80%
    11:00 +7°C° 0 mm 4 mps 756 mmHg 79%
    12:00 +8°C° 0 mm 4 mps 756 mmHg 77%
    13:00 +8°C° 0.1 mm 5 mps 756 mmHg 75%
    14:00 +9°C° 0.1 mm 5 mps 755 mmHg 73%
    15:00 +9°C° 0.1 mm 5 mps 755 mmHg 70%
    16:00 +9°C° 0 mm 5 mps 755 mmHg 73%
    17:00 +8°C° 0 mm 5 mps 754 mmHg 76%
    18:00 +8°C° 0 mm 4 mps 754 mmHg 79%
    19:00 +7°C° 0.1 mm 4 mps 754 mmHg 82%
    20:00 +6°C° 0.1 mm 4 mps 754 mmHg 85%
    21:00 +6°C° 0.1 mm 4 mps 754 mmHg 87%
    22:00 +5°C° 0 mm 4 mps 753 mmHg 88%
    23:00 +5°C° 0 mm 4 mps 753 mmHg 89%

    3 April, Friday

    Time Temperature Precipitation Wind Pressure Humidity
    00:00 +5°C° 0 mm 4 mps 753 mmHg 90%
    01:00 +5°C° 0.1 mm 4 mps 753 mmHg 90%
    02:00 +5°C° 0.1 mm 4 mps 752 mmHg 90%
    03:00 +5°C° 0.1 mm 3 mps 752 mmHg 90%
    04:00 +5°C° 0.1 mm 3 mps 752 mmHg 90%
    05:00 +4°C° 0.1 mm 3 mps 753 mmHg 90%
    06:00 +4°C° 0.1 mm 3 mps 753 mmHg 90%
    07:00 +5°C° 0.1 mm 4 mps 753 mmHg 86%
    08:00 +5°C° 0.1 mm 4 mps 753 mmHg 81%
    09:00 +6°C° 0.1 mm 5 mps 753 mmHg 76%
    10:00 +6°C° 0 mm 5 mps 753 mmHg 72%
    11:00 +7°C° 0 mm 5 mps 753 mmHg 68%
    12:00 +7°C° 0 mm 5 mps 753 mmHg 63%
    13:00 +7°C° 0 mm 5 mps 753 mmHg 63%
    14:00 +7°C° 0 mm 5 mps 753 mmHg 62%
    15:00 +6°C° 0 mm 5 mps 752 mmHg 62%
    16:00 +6°C° 0 mm 4 mps 752 mmHg 65%
    17:00 +7°C° 0 mm 3 mps 752 mmHg 67%
    18:00 +6°C° 0 mm 2 mps 752 mmHg 70%
    19:00 +5°C° 0 mm 2 mps 752 mmHg 75%
    20:00 +4°C° 0 mm 2 mps 752 mmHg 80%
    21:00 +2°C° 0 mm 3 mps 753 mmHg 85%
    22:00 +4°C° 0 mm 2 mps 753 mmHg 86%
    23:00 +4°C° 0 mm 2 mps 753 mmHg 86%
    Show more